Time,TemperatureF,DewpointF,PressureIn,WindDirection,WindDirectionDegrees,WindSpeedMPH,WindSpeedGustMPH,Humidity,HourlyPrecipIn,Conditions,Clouds,dailyrainin,SoftwareType,DateUTC
2013-08-13 12:00:00,76.9,50.1,30.30,ESE,113,1.6,1.6,39,0.00,,,0.00,WUHU216HW,2013-08-13 18:00:00,
2013-08-13 12:01:00,76.9,50.1,30.30,East,90,1.1,1.6,39,0.00,,,0.00,WUHU216HW,2013-08-13 18:01:00,
2013-08-13 12:02:00,77.0,50.2,30.31,ENE,68,2.5,2.5,39,0.00,,,0.00,WUHU216HW,2013-08-13 18:02:00,
2013-08-13 12:03:00,77.0,50.2,30.31,ENE,68,2.5,2.5,39,0.00,,,0.00,WUHU216HW,2013-08-13 18:03:00,
2013-08-13 12:08:00,77.0,50.2,30.31,ENE,68,2.5,2.5,39,0.00,,,0.00,WUHU216HW,2013-08-13 18:08:00,
2013-08-13 12:32:00,79.6,50.1,30.30,ENE,68,1.8,1.8,36,0.00,,,0.00,WUHU216HW,2013-08-13 18:32:00,
2013-08-13 12:37:00,79.6,50.1,30.30,ENE,68,1.8,1.8,36,0.00,,,0.00,WUHU216HW,2013-08-13 18:37:00,
2013-08-13 13:00:00,79.2,50.6,30.29,East,90,0.9,1.6,37,0.00,,,0.00,WUHU216HW,2013-08-13 19:00:00,
2013-08-13 13:05:00,79.2,50.6,30.29,East,90,0.9,1.6,37,0.00,,,0.00,WUHU216HW,2013-08-13 19:05:00,
2013-08-13 13:30:00,79.9,49.7,30.28,North,0,0.2,0.2,35,0.00,,,0.00,WUHU216HW,2013-08-13 19:30:00,
2013-08-13 13:35:00,79.9,49.7,30.28,North,0,0.2,0.2,35,0.00,,,0.00,WUHU216HW,2013-08-13 19:35:00,
2013-08-13 14:00:00,82.8,49.8,30.26,WNW,293,1.1,1.1,32,0.00,,,0.00,WUHU216HW,2013-08-13 20:00:00,
2013-08-13 14:05:00,82.8,49.8,30.26,WNW,293,1.1,1.1,32,0.00,,,0.00,WUHU216HW,2013-08-13 20:05:00,
2013-08-13 14:30:00,87.1,47.7,30.24,East,90,1.1,1.1,26,0.00,,,0.00,WUHU216HW,2013-08-13 20:30:00,
2013-08-13 14:35:00,87.1,47.7,30.24,East,90,1.1,1.1,26,0.00,,,0.00,WUHU216HW,2013-08-13 20:35:00,
2013-08-13 15:00:00,88.2,46.5,30.24,North,0,1.6,1.6,24,0.00,,,0.00,WUHU216HW,2013-08-13 21:00:00,
2013-08-13 15:05:00,88.2,46.5,30.24,North,0,1.6,1.6,24,0.00,,,0.00,WUHU216HW,2013-08-13 21:05:00,
2013-08-13 15:30:00,87.8,46.2,30.24,WNW,293,1.8,1.8,24,0.00,,,0.00,WUHU216HW,2013-08-13 21:30:00,
2013-08-13 15:35:00,87.8,46.2,30.24,WNW,293,1.8,1.8,24,0.00,,,0.00,WUHU216HW,2013-08-13 21:35:00,
2013-08-13 16:00:00,86.6,46.2,30.24,WSW,248,2.9,2.9,25,0.00,,,0.00,WUHU216HW,2013-08-13 22:00:00,
2013-08-13 16:05:00,86.6,46.2,30.24,WSW,248,2.9,2.9,25,0.00,,,0.00,WUHU216HW,2013-08-13 22:05:00,
2013-08-13 16:30:00,84.1,43.0,30.26,NNE,23,3.8,3.8,24,0.00,,,0.00,WUHU216HW,2013-08-13 22:30:00,
2013-08-13 16:35:00,84.1,43.0,30.26,NNE,23,3.8,3.8,24,0.00,,,0.00,WUHU216HW,2013-08-13 22:35:00,